owner,sensor,date,latitude,longitude,vertical_datum,mass_concentration_of_oxygen_in_sea_water,qcFlag 
SCCF RECON,ioos:station:SCCF:11:1,2019-10-01T04:00:00Z,26.4679,-82.0631,2.18,5.17,11111222 
SCCF RECON,ioos:station:SCCF:11:1,2019-10-01T05:00:00Z,26.4679,-82.0631,2.297,5.39,11111222 
SCCF RECON,ioos:station:SCCF:11:1,2019-10-01T06:00:00Z,26.4679,-82.0631,2.36,5.43,11111222 
SCCF RECON,ioos:station:SCCF:11:1,2019-10-01T07:00:00Z,26.4679,-82.0631,2.39,5.33,11111222 
SCCF RECON,ioos:station:SCCF:11:1,2019-10-01T08:00:00Z,26.4679,-82.0631,2.32,5.14,11111222 
SCCF RECON,ioos:station:SCCF:11:1,2019-10-01T09:00:00Z,26.4679,-82.0631,2.21,4.99,11111222 
SCCF RECON,ioos:station:SCCF:11:1,2019-10-01T10:00:00Z,26.4679,-82.0631,2.089,4.64,11111222 
SCCF RECON,ioos:station:SCCF:11:1,2019-10-01T11:00:00Z,26.4679,-82.0631,1.95,4.82,11111222 
SCCF RECON,ioos:station:SCCF:11:1,2019-10-01T12:00:00Z,26.4679,-82.0631,1.81,4.81,11111222 
SCCF RECON,ioos:station:SCCF:11:1,2019-10-01T13:00:00Z,26.4679,-82.0631,1.681,4.67,11111222 
SCCF RECON,ioos:station:SCCF:11:1,2019-10-01T14:00:00Z,26.4679,-82.0631,1.611,5.15,11111222 
SCCF RECON,ioos:station:SCCF:11:1,2019-10-01T15:00:00Z,26.4679,-82.0631,1.68,4.92,11111222 
SCCF RECON,ioos:station:SCCF:11:1,2019-10-01T16:00:00Z,26.4679,-82.0631,1.861,6.77,11111222 
SCCF RECON,ioos:station:SCCF:11:1,2019-10-01T17:00:00Z,26.4679,-82.0631,2.05,5.96,11111222 
SCCF RECON,ioos:station:SCCF:11:1,2019-10-01T18:00:00Z,26.4679,-82.0631,2.18,5.69,11111222 
SCCF RECON,ioos:station:SCCF:11:1,2019-10-01T19:00:00Z,26.4679,-82.0631,2.289,5.8,11111222 
SCCF RECON,ioos:station:SCCF:11:1,2019-10-01T20:00:00Z,26.4679,-82.0631,2.34,5.83,11111222 
SCCF RECON,ioos:station:SCCF:11:1,2019-10-01T21:00:00Z,26.4679,-82.0631,2.31,6.0,11111222 
SCCF RECON,ioos:station:SCCF:11:1,2019-10-01T22:00:00Z,26.4679,-82.0631,2.232,5.61,11111222 
SCCF RECON,ioos:station:SCCF:11:1,2019-10-01T23:00:00Z,26.4679,-82.0631,2.17,6.19,11111222 
SCCF RECON,ioos:station:SCCF:11:1,2019-10-02T04:00:00Z,26.4679,-82.0631,2.157,5.34,11111222 
SCCF RECON,ioos:station:SCCF:11:1,2019-10-02T05:00:00Z,26.4679,-82.0631,2.31,5.41,11111222 
SCCF RECON,ioos:station:SCCF:11:1,2019-10-02T06:00:00Z,26.4679,-82.0631,2.371,5.52,11111222 
SCCF RECON,ioos:station:SCCF:11:1,2019-10-02T07:00:00Z,26.4679,-82.0631,2.41,5.43,11111222 
SCCF RECON,ioos:station:SCCF:11:1,2019-10-02T08:00:00Z,26.4679,-82.0631,2.4,5.34,11111222 
SCCF RECON,ioos:station:SCCF:11:1,2019-10-02T09:00:00Z,26.4679,-82.0631,2.361,5.27,11111222 
SCCF RECON,ioos:station:SCCF:11:1,2019-10-02T10:00:00Z,26.4679,-82.0631,2.247,4.96,11111222 
SCCF RECON,ioos:station:SCCF:11:1,2019-10-02T11:00:00Z,26.4679,-82.0631,2.087,4.83,11111222 
SCCF RECON,ioos:station:SCCF:11:1,2019-10-02T12:00:00Z,26.4679,-82.0631,1.95,4.72,11111222 
SCCF RECON,ioos:station:SCCF:11:1,2019-10-02T13:00:00Z,26.4679,-82.0631,1.822,4.88,11111222 
SCCF RECON,ioos:station:SCCF:11:1,2019-10-02T14:00:00Z,26.4679,-82.0631,1.711,5.11,11111222 
SCCF RECON,ioos:station:SCCF:11:1,2019-10-02T15:00:00Z,26.4679,-82.0631,1.669,5.55,11111222 
SCCF RECON,ioos:station:SCCF:11:1,2019-10-02T16:00:00Z,26.4679,-82.0631,1.741,5.39,11111222 
SCCF RECON,ioos:station:SCCF:11:1,2019-10-02T17:00:00Z,26.4679,-82.0631,1.907,5.96,11111222 
SCCF RECON,ioos:station:SCCF:11:1,2019-10-02T18:00:00Z,26.4679,-82.0631,2.05,6.33,11111222 
SCCF RECON,ioos:station:SCCF:11:1,2019-10-02T19:00:00Z,26.4679,-82.0631,2.133,6.49,11111222 
SCCF RECON,ioos:station:SCCF:11:1,2019-10-02T20:00:00Z,26.4679,-82.0631,2.19,6.25,11111222 
SCCF RECON,ioos:station:SCCF:11:1,2019-10-02T21:00:00Z,26.4679,-82.0631,2.25,6.52,11111222 
SCCF RECON,ioos:station:SCCF:11:1,2019-10-02T22:00:00Z,26.4679,-82.0631,2.233,5.95,11111222 
SCCF RECON,ioos:station:SCCF:11:1,2019-10-02T23:00:00Z,26.4679,-82.0631,2.21,5.97,11111222 
SCCF RECON,ioos:station:SCCF:11:1,2019-10-03T04:00:00Z,26.4679,-82.0631,2.148,5.44,11111222 
SCCF RECON,ioos:station:SCCF:11:1,2019-10-03T05:00:00Z,26.4679,-82.0631,2.26,5.23,11111222 
SCCF RECON,ioos:station:SCCF:11:1,2019-10-03T06:00:00Z,26.4679,-82.0631,2.36,5.32,11111222 
SCCF RECON,ioos:station:SCCF:11:1,2019-10-03T07:00:00Z,26.4679,-82.0631,2.42,5.41,11111222 
SCCF RECON,ioos:station:SCCF:11:1,2019-10-03T08:00:00Z,26.4679,-82.0631,2.44,5.44,11111222 
SCCF RECON,ioos:station:SCCF:11:1,2019-10-03T09:00:00Z,26.4679,-82.0631,2.46,5.24,11111222 
SCCF RECON,ioos:station:SCCF:11:1,2019-10-03T10:00:00Z,26.4679,-82.0631,2.43,5.3,11111222 
SCCF RECON,ioos:station:SCCF:11:1,2019-10-03T11:00:00Z,26.4679,-82.0631,2.31,4.98,11111222 
SCCF RECON,ioos:station:SCCF:11:1,2019-10-03T12:00:00Z,26.4679,-82.0631,2.18,4.66,11111222 
SCCF RECON,ioos:station:SCCF:11:1,2019-10-03T13:00:00Z,26.4679,-82.0631,2.049,4.56,11111222 
SCCF RECON,ioos:station:SCCF:11:1,2019-10-03T14:00:00Z,26.4679,-82.0631,1.928,4.9,11111222 
SCCF RECON,ioos:station:SCCF:11:1,2019-10-03T15:00:00Z,26.4679,-82.0631,1.82,5.41,11111222 
SCCF RECON,ioos:station:SCCF:11:1,2019-10-03T16:00:00Z,26.4679,-82.0631,1.772,5.78,11111222 
SCCF RECON,ioos:station:SCCF:11:1,2019-10-03T17:00:00Z,26.4679,-82.0631,1.85,6.09,11111222 
SCCF RECON,ioos:station:SCCF:11:1,2019-10-03T18:00:00Z,26.4679,-82.0631,2.0,6.89,11111222 
SCCF RECON,ioos:station:SCCF:11:1,2019-10-03T19:00:00Z,26.4679,-82.0631,2.11,6.23,11111222 
SCCF RECON,ioos:station:SCCF:11:1,2019-10-03T20:00:00Z,26.4679,-82.0631,2.18,7.32,11111222 
SCCF RECON,ioos:station:SCCF:11:1,2019-10-03T21:00:00Z,26.4679,-82.0631,2.22,6.7,11111222 
SCCF RECON,ioos:station:SCCF:11:1,2019-10-03T22:00:00Z,26.4679,-82.0631,2.26,6.37,11111222 
SCCF RECON,ioos:station:SCCF:11:1,2019-10-03T23:00:00Z,26.4679,-82.0631,2.273,6.59,11111222 
SCCF RECON,ioos:station:SCCF:11:1,2019-10-04T04:00:00Z,26.4679,-82.0631,2.17,5.79,11111222 
SCCF RECON,ioos:station:SCCF:11:1,2019-10-04T05:00:00Z,26.4679,-82.0631,2.19,5.7,11111222 
SCCF RECON,ioos:station:SCCF:11:1,2019-10-04T06:00:00Z,26.4679,-82.0631,2.283,5.59,11111222 
SCCF RECON,ioos:station:SCCF:11:1,2019-10-04T07:00:00Z,26.4679,-82.0631,2.37,5.45,11111222 
SCCF RECON,ioos:station:SCCF:11:1,2019-10-04T08:00:00Z,26.4679,-82.0631,2.43,5.48,11111222 
SCCF RECON,ioos:station:SCCF:11:1,2019-10-04T09:00:00Z,26.4679,-82.0631,2.45,5.56,11111222 
SCCF RECON,ioos:station:SCCF:11:1,2019-10-04T10:00:00Z,26.4679,-82.0631,2.432,5.59,11111222 
SCCF RECON,ioos:station:SCCF:11:1,2019-10-04T11:00:00Z,26.4679,-82.0631,2.39,5.45,11111222 
SCCF RECON,ioos:station:SCCF:11:1,2019-10-04T12:00:00Z,26.4679,-82.0631,2.31,5.05,11111222 
SCCF RECON,ioos:station:SCCF:11:1,2019-10-04T13:00:00Z,26.4679,-82.0631,2.196,4.76,11111222 
SCCF RECON,ioos:station:SCCF:11:1,2019-10-04T14:00:00Z,26.4679,-82.0631,2.06,4.87,11111222 
SCCF RECON,ioos:station:SCCF:11:1,2019-10-04T15:00:00Z,26.4679,-82.0631,1.95,5.01,11111222 
SCCF RECON,ioos:station:SCCF:11:1,2019-10-04T16:00:00Z,26.4679,-82.0631,1.868,5.39,11111222 
SCCF RECON,ioos:station:SCCF:11:1,2019-10-04T17:00:00Z,26.4679,-82.0631,1.83,5.77,11111222 
SCCF RECON,ioos:station:SCCF:11:1,2019-10-04T18:00:00Z,26.4679,-82.0631,1.86,6.59,11111222 
SCCF RECON,ioos:station:SCCF:11:1,2019-10-04T19:00:00Z,26.4679,-82.0631,1.96,6.94,11111222 
SCCF RECON,ioos:station:SCCF:11:1,2019-10-04T20:00:00Z,26.4679,-82.0631,2.076,6.93,11111222 
SCCF RECON,ioos:station:SCCF:11:1,2019-10-04T21:00:00Z,26.4679,-82.0631,2.141,6.51,11111222 
SCCF RECON,ioos:station:SCCF:11:1,2019-10-04T22:00:00Z,26.4679,-82.0631,2.181,6.86,11111222 
SCCF RECON,ioos:station:SCCF:11:1,2019-10-04T23:00:00Z,26.4679,-82.0631,2.21,6.78,11111222 
SCCF RECON,ioos:station:SCCF:11:1,2019-10-05T04:00:00Z,26.4679,-82.0631,2.23,5.44,11111222 
SCCF RECON,ioos:station:SCCF:11:1,2019-10-05T05:00:00Z,26.4679,-82.0631,2.237,6.32,11111222 
SCCF RECON,ioos:station:SCCF:11:1,2019-10-05T06:00:00Z,26.4679,-82.0631,2.23,6.21,11111222 
SCCF RECON,ioos:station:SCCF:11:1,2019-10-05T07:00:00Z,26.4679,-82.0631,2.25,5.67,11111222 
SCCF RECON,ioos:station:SCCF:11:1,2019-10-05T08:00:00Z,26.4679,-82.0631,2.29,5.24,11111222 
SCCF RECON,ioos:station:SCCF:11:1,2019-10-05T09:00:00Z,26.4679,-82.0631,2.347,5.12,11111222 
SCCF RECON,ioos:station:SCCF:11:1,2019-10-05T10:00:00Z,26.4679,-82.0631,2.38,5.28,11111222 
SCCF RECON,ioos:station:SCCF:11:1,2019-10-05T11:00:00Z,26.4679,-82.0631,2.373,5.36,11111222 
SCCF RECON,ioos:station:SCCF:11:1,2019-10-05T12:00:00Z,26.4679,-82.0631,2.337,5.25,11111222 
SCCF RECON,ioos:station:SCCF:11:1,2019-10-05T13:00:00Z,26.4679,-82.0631,2.25,4.91,11111222 
SCCF RECON,ioos:station:SCCF:11:1,2019-10-05T14:00:00Z,26.4679,-82.0631,2.147,5.06,11111222 
SCCF RECON,ioos:station:SCCF:11:1,2019-10-05T15:00:00Z,26.4679,-82.0631,2.05,5.02,11111222 
SCCF RECON,ioos:station:SCCF:11:1,2019-10-05T16:00:00Z,26.4679,-82.0631,1.94,5.71,11111222 
SCCF RECON,ioos:station:SCCF:11:1,2019-10-05T17:00:00Z,26.4679,-82.0631,1.849,6.4,11111222 
SCCF RECON,ioos:station:SCCF:11:1,2019-10-05T18:00:00Z,26.4679,-82.0631,1.798,6.11,11111222 
SCCF RECON,ioos:station:SCCF:11:1,2019-10-05T19:00:00Z,26.4679,-82.0631,1.812,6.93,11111222 
SCCF RECON,ioos:station:SCCF:11:1,2019-10-05T20:00:00Z,26.4679,-82.0631,1.94,7.48,11111222 
SCCF RECON,ioos:station:SCCF:11:1,2019-10-05T21:00:00Z,26.4679,-82.0631,2.041,6.61,11111222 
SCCF RECON,ioos:station:SCCF:11:1,2019-10-05T22:00:00Z,26.4679,-82.0631,2.1,6.16,11111222 
SCCF RECON,ioos:station:SCCF:11:1,2019-10-05T23:00:00Z,26.4679,-82.0631,2.16,5.95,11111222 
SCCF RECON,ioos:station:SCCF:11:1,2019-10-06T04:00:00Z,26.4679,-82.0631,2.2,5.38,11111222 
SCCF RECON,ioos:station:SCCF:11:1,2019-10-06T05:00:00Z,26.4679,-82.0631,2.19,5.04,11111222 
SCCF RECON,ioos:station:SCCF:11:1,2019-10-06T06:00:00Z,26.4679,-82.0631,2.17,5.22,11111222 
SCCF RECON,ioos:station:SCCF:11:1,2019-10-06T07:00:00Z,26.4679,-82.0631,2.14,5.04,11111222 
SCCF RECON,ioos:station:SCCF:11:1,2019-10-06T08:00:00Z,26.4679,-82.0631,2.19,4.89,11111222 
SCCF RECON,ioos:station:SCCF:11:1,2019-10-06T09:00:00Z,26.4679,-82.0631,2.29,4.55,11111222 
SCCF RECON,ioos:station:SCCF:11:1,2019-10-06T10:00:00Z,26.4679,-82.0631,2.35,4.72,11111222 
SCCF RECON,ioos:station:SCCF:11:1,2019-10-06T11:00:00Z,26.4679,-82.0631,2.381,4.96,11111222 
SCCF RECON,ioos:station:SCCF:11:1,2019-10-06T12:00:00Z,26.4679,-82.0631,2.37,4.82,11111222 
SCCF RECON,ioos:station:SCCF:11:1,2019-10-06T13:00:00Z,26.4679,-82.0631,2.313,4.64,11111222 
SCCF RECON,ioos:station:SCCF:11:1,2019-10-06T14:00:00Z,26.4679,-82.0631,2.24,4.57,11111222 
SCCF RECON,ioos:station:SCCF:11:1,2019-10-06T15:00:00Z,26.4679,-82.0631,2.163,4.45,11111222 
SCCF RECON,ioos:station:SCCF:11:1,2019-10-06T16:00:00Z,26.4679,-82.0631,2.051,4.75,11111222 
SCCF RECON,ioos:station:SCCF:11:1,2019-10-06T17:00:00Z,26.4679,-82.0631,1.968,6.01,11111222 
SCCF RECON,ioos:station:SCCF:11:1,2019-10-06T18:00:00Z,26.4679,-82.0631,1.88,6.0,11111222 
SCCF RECON,ioos:station:SCCF:11:1,2019-10-06T19:00:00Z,26.4679,-82.0631,1.82,6.13,11111222 
SCCF RECON,ioos:station:SCCF:11:1,2019-10-06T20:00:00Z,26.4679,-82.0631,1.857,7.47,11111222 
SCCF RECON,ioos:station:SCCF:11:1,2019-10-06T21:00:00Z,26.4679,-82.0631,1.971,7.8,11111222 
SCCF RECON,ioos:station:SCCF:11:1,2019-10-06T22:00:00Z,26.4679,-82.0631,2.089,6.56,11111222 
SCCF RECON,ioos:station:SCCF:11:1,2019-10-06T23:00:00Z,26.4679,-82.0631,2.16,6.09,11111222 
SCCF RECON,ioos:station:SCCF:11:1,2019-10-07T04:00:00Z,26.4679,-82.0631,2.264,5.75,11111222 
SCCF RECON,ioos:station:SCCF:11:1,2019-10-07T05:00:00Z,26.4679,-82.0631,2.23,5.57,11111222 
SCCF RECON,ioos:station:SCCF:11:1,2019-10-07T06:00:00Z,26.4679,-82.0631,2.16,5.43,11111222 
SCCF RECON,ioos:station:SCCF:11:1,2019-10-07T07:00:00Z,26.4679,-82.0631,2.12,5.0,11111222 
SCCF RECON,ioos:station:SCCF:11:1,2019-10-07T08:00:00Z,26.4679,-82.0631,2.129,5.23,11111222 
SCCF RECON,ioos:station:SCCF:11:1,2019-10-07T09:00:00Z,26.4679,-82.0631,2.2,5.04,11111222 
SCCF RECON,ioos:station:SCCF:11:1,2019-10-07T10:00:00Z,26.4679,-82.0631,2.29,4.84,11111222 
SCCF RECON,ioos:station:SCCF:11:1,2019-10-07T11:00:00Z,26.4679,-82.0631,2.34,4.74,11111222 
SCCF RECON,ioos:station:SCCF:11:1,2019-10-07T12:00:00Z,26.4679,-82.0631,2.38,4.75,11111222 
SCCF RECON,ioos:station:SCCF:11:1,2019-10-07T13:00:00Z,26.4679,-82.0631,2.38,4.85,11111222 
SCCF RECON,ioos:station:SCCF:11:1,2019-10-07T15:00:00Z,26.4679,-82.0631,2.29,4.81,11111222 
SCCF RECON,ioos:station:SCCF:11:1,2019-10-07T16:00:00Z,26.4679,-82.0631,2.18,5.08,11111222 
SCCF RECON,ioos:station:SCCF:11:1,2019-10-07T17:00:00Z,26.4679,-82.0631,2.082,5.25,11111222 
SCCF RECON,ioos:station:SCCF:11:1,2019-10-07T18:00:00Z,26.4679,-82.0631,1.989,5.54,11111222 
SCCF RECON,ioos:station:SCCF:11:1,2019-10-07T19:00:00Z,26.4679,-82.0631,1.9,5.59,11111222 
SCCF RECON,ioos:station:SCCF:11:1,2019-10-07T20:00:00Z,26.4679,-82.0631,1.87,7.18,11111222 
SCCF RECON,ioos:station:SCCF:11:1,2019-10-07T21:00:00Z,26.4679,-82.0631,1.88,6.61,11111222 
SCCF RECON,ioos:station:SCCF:11:1,2019-10-07T22:00:00Z,26.4679,-82.0631,1.99,6.22,11111222 
SCCF RECON,ioos:station:SCCF:11:1,2019-10-07T23:00:00Z,26.4679,-82.0631,2.067,5.96,11111222 
SCCF RECON,ioos:station:SCCF:11:1,2019-10-08T04:00:00Z,26.4679,-82.0631,2.36,5.53,11111222 
SCCF RECON,ioos:station:SCCF:11:1,2019-10-08T05:00:00Z,26.4679,-82.0631,2.35,5.34,11111222 
SCCF RECON,ioos:station:SCCF:11:1,2019-10-08T06:00:00Z,26.4679,-82.0631,2.278,5.11,11111222 
SCCF RECON,ioos:station:SCCF:11:1,2019-10-08T07:00:00Z,26.4679,-82.0631,2.183,5.01,11111222 
SCCF RECON,ioos:station:SCCF:11:1,2019-10-08T08:00:00Z,26.4679,-82.0631,2.18,4.83,11111222 
SCCF RECON,ioos:station:SCCF:11:1,2019-10-08T09:00:00Z,26.4679,-82.0631,2.19,4.96,11111222 
SCCF RECON,ioos:station:SCCF:11:1,2019-10-08T10:00:00Z,26.4679,-82.0631,2.217,5.23,11111222 
SCCF RECON,ioos:station:SCCF:11:1,2019-10-08T11:00:00Z,26.4679,-82.0631,2.3,5.07,11111222 
SCCF RECON,ioos:station:SCCF:11:1,2019-10-08T12:00:00Z,26.4679,-82.0631,2.372,4.74,11111222 
SCCF RECON,ioos:station:SCCF:11:1,2019-10-08T13:00:00Z,26.4679,-82.0631,2.433,5.11,11111222 
SCCF RECON,ioos:station:SCCF:11:1,2019-10-08T14:00:00Z,26.4679,-82.0631,2.44,5.3,11111222 
SCCF RECON,ioos:station:SCCF:11:1,2019-10-08T15:00:00Z,26.4679,-82.0631,2.41,5.29,11111222 
SCCF RECON,ioos:station:SCCF:11:1,2019-10-08T16:00:00Z,26.4679,-82.0631,2.33,4.98,11111222 
SCCF RECON,ioos:station:SCCF:11:1,2019-10-08T17:00:00Z,26.4679,-82.0631,2.23,5.06,11111222 
SCCF RECON,ioos:station:SCCF:11:1,2019-10-08T18:00:00Z,26.4679,-82.0631,2.127,5.37,11111222 
SCCF RECON,ioos:station:SCCF:11:1,2019-10-08T19:00:00Z,26.4679,-82.0631,2.03,5.36,11111222 
SCCF RECON,ioos:station:SCCF:11:1,2019-10-08T20:00:00Z,26.4679,-82.0631,1.95,5.33,11111222 
SCCF RECON,ioos:station:SCCF:11:1,2019-10-08T21:00:00Z,26.4679,-82.0631,1.89,5.42,11111222 
SCCF RECON,ioos:station:SCCF:11:1,2019-10-08T22:00:00Z,26.4679,-82.0631,1.91,6.5,11111222 
SCCF RECON,ioos:station:SCCF:11:1,2019-10-08T23:00:00Z,26.4679,-82.0631,2.03,6.31,11111222 
SCCF RECON,ioos:station:SCCF:11:1,2019-10-09T04:00:00Z,26.4679,-82.0631,2.39,5.89,11111222 
SCCF RECON,ioos:station:SCCF:11:1,2019-10-09T05:00:00Z,26.4679,-82.0631,2.35,5.64,11111222 
SCCF RECON,ioos:station:SCCF:11:1,2019-10-09T06:00:00Z,26.4679,-82.0631,2.25,5.39,11111222 
SCCF RECON,ioos:station:SCCF:11:1,2019-10-09T07:00:00Z,26.4679,-82.0631,2.16,5.04,11111222 
SCCF RECON,ioos:station:SCCF:11:1,2019-10-09T08:00:00Z,26.4679,-82.0631,2.15,5.11,11111222 
SCCF RECON,ioos:station:SCCF:11:1,2019-10-09T09:00:00Z,26.4679,-82.0631,2.121,4.5,11111222 
SCCF RECON,ioos:station:SCCF:11:1,2019-10-09T10:00:00Z,26.4679,-82.0631,2.11,4.34,11111222 
SCCF RECON,ioos:station:SCCF:11:1,2019-10-09T11:00:00Z,26.4679,-82.0631,2.159,5.02,11111222 
SCCF RECON,ioos:station:SCCF:11:1,2019-10-09T12:00:00Z,26.4679,-82.0631,2.251,5.0,11111222 
SCCF RECON,ioos:station:SCCF:11:1,2019-10-09T13:00:00Z,26.4679,-82.0631,2.35,4.9,11111222 
SCCF RECON,ioos:station:SCCF:11:1,2019-10-09T14:00:00Z,26.4679,-82.0631,2.4,4.89,11111222 
SCCF RECON,ioos:station:SCCF:11:1,2019-10-09T15:00:00Z,26.4679,-82.0631,2.41,5.27,11111222 
SCCF RECON,ioos:station:SCCF:11:1,2019-10-09T16:00:00Z,26.4679,-82.0631,2.38,5.26,11111222 
SCCF RECON,ioos:station:SCCF:11:1,2019-10-09T17:00:00Z,26.4679,-82.0631,2.32,5.16,11111222 
SCCF RECON,ioos:station:SCCF:11:1,2019-10-09T18:00:00Z,26.4679,-82.0631,2.21,5.11,11111222 
SCCF RECON,ioos:station:SCCF:11:1,2019-10-09T19:00:00Z,26.4679,-82.0631,2.073,5.45,11111222 
SCCF RECON,ioos:station:SCCF:11:1,2019-10-09T20:00:00Z,26.4679,-82.0631,1.956,5.24,11111222 
SCCF RECON,ioos:station:SCCF:11:1,2019-10-09T21:00:00Z,26.4679,-82.0631,1.86,5.2,11111222 
SCCF RECON,ioos:station:SCCF:11:1,2019-10-09T22:00:00Z,26.4679,-82.0631,1.812,7.35,11111222 
SCCF RECON,ioos:station:SCCF:11:1,2019-10-09T23:00:00Z,26.4679,-82.0631,1.87,5.59,11111222 
SCCF RECON,ioos:station:SCCF:11:1,2019-10-10T04:00:00Z,26.4679,-82.0631,2.263,5.71,11111222 
SCCF RECON,ioos:station:SCCF:11:1,2019-10-10T05:00:00Z,26.4679,-82.0631,2.274,5.26,11111222 
SCCF RECON,ioos:station:SCCF:11:1,2019-10-10T06:00:00Z,26.4679,-82.0631,2.25,5.15,11111222 
SCCF RECON,ioos:station:SCCF:11:1,2019-10-10T07:00:00Z,26.4679,-82.0631,2.15,4.78,11111222 
SCCF RECON,ioos:station:SCCF:11:1,2019-10-10T08:00:00Z,26.4679,-82.0631,2.067,4.56,11111222 
SCCF RECON,ioos:station:SCCF:11:1,2019-10-10T09:00:00Z,26.4679,-82.0631,1.99,4.41,11111222 
SCCF RECON,ioos:station:SCCF:11:1,2019-10-10T10:00:00Z,26.4679,-82.0631,1.959,4.34,11111222 
SCCF RECON,ioos:station:SCCF:11:1,2019-10-10T11:00:00Z,26.4679,-82.0631,1.99,4.89,11111222 
SCCF RECON,ioos:station:SCCF:11:1,2019-10-10T12:00:00Z,26.4679,-82.0631,2.14,4.64,11111222 
SCCF RECON,ioos:station:SCCF:11:1,2019-10-10T13:00:00Z,26.4679,-82.0631,2.26,4.67,11111222 
SCCF RECON,ioos:station:SCCF:11:1,2019-10-10T14:00:00Z,26.4679,-82.0631,2.34,4.38,11111222 
SCCF RECON,ioos:station:SCCF:11:1,2019-10-10T15:00:00Z,26.4679,-82.0631,2.4,5.01,11111222 
SCCF RECON,ioos:station:SCCF:11:1,2019-10-10T16:00:00Z,26.4679,-82.0631,2.4,5.5,11111222 
SCCF RECON,ioos:station:SCCF:11:1,2019-10-10T17:00:00Z,26.4679,-82.0631,2.35,5.07,11111222 
SCCF RECON,ioos:station:SCCF:11:1,2019-10-10T18:00:00Z,26.4679,-82.0631,2.233,5.45,11111222 
SCCF RECON,ioos:station:SCCF:11:1,2019-10-10T19:00:00Z,26.4679,-82.0631,2.12,5.49,11111222 
SCCF RECON,ioos:station:SCCF:11:1,2019-10-10T20:00:00Z,26.4679,-82.0631,2.009,6.05,11111222 
SCCF RECON,ioos:station:SCCF:11:1,2019-10-10T21:00:00Z,26.4679,-82.0631,1.917,6.32,11111222 
SCCF RECON,ioos:station:SCCF:11:1,2019-10-10T22:00:00Z,26.4679,-82.0631,1.83,6.55,11111222 
SCCF RECON,ioos:station:SCCF:11:1,2019-10-10T23:00:00Z,26.4679,-82.0631,1.83,6.72,11111222 
SCCF RECON,ioos:station:SCCF:11:1,2019-10-11T04:00:00Z,26.4679,-82.0631,2.334,5.56,11111222 
SCCF RECON,ioos:station:SCCF:11:1,2019-10-11T05:00:00Z,26.4679,-82.0631,2.333,5.58,11111222 
SCCF RECON,ioos:station:SCCF:11:1,2019-10-11T06:00:00Z,26.4679,-82.0631,2.278,5.43,11111222 
SCCF RECON,ioos:station:SCCF:11:1,2019-10-11T07:00:00Z,26.4679,-82.0631,2.139,5.06,11111222 
SCCF RECON,ioos:station:SCCF:11:1,2019-10-11T08:00:00Z,26.4679,-82.0631,2.05,4.85,11111222 
SCCF RECON,ioos:station:SCCF:11:1,2019-10-11T09:00:00Z,26.4679,-82.0631,2.0,4.46,11111222 
SCCF RECON,ioos:station:SCCF:11:1,2019-10-11T10:00:00Z,26.4679,-82.0631,1.92,4.67,11111222 
SCCF RECON,ioos:station:SCCF:11:1,2019-10-11T11:00:00Z,26.4679,-82.0631,1.89,4.68,11111222 
SCCF RECON,ioos:station:SCCF:11:1,2019-10-11T12:00:00Z,26.4679,-82.0631,1.99,5.16,11111222 
SCCF RECON,ioos:station:SCCF:11:1,2019-10-11T13:00:00Z,26.4679,-82.0631,2.16,5.09,11111222 
SCCF RECON,ioos:station:SCCF:11:1,2019-10-11T14:00:00Z,26.4679,-82.0631,2.278,4.89,11111222 
SCCF RECON,ioos:station:SCCF:11:1,2019-10-11T15:00:00Z,26.4679,-82.0631,2.342,5.59,11111222 
SCCF RECON,ioos:station:SCCF:11:1,2019-10-11T16:00:00Z,26.4679,-82.0631,2.388,5.73,11111222 
SCCF RECON,ioos:station:SCCF:11:1,2019-10-11T17:00:00Z,26.4679,-82.0631,2.39,5.94,11111222 
SCCF RECON,ioos:station:SCCF:11:1,2019-10-11T18:00:00Z,26.4679,-82.0631,2.332,5.49,11111222 
SCCF RECON,ioos:station:SCCF:11:1,2019-10-11T19:00:00Z,26.4679,-82.0631,2.201,6.58,11111222 
SCCF RECON,ioos:station:SCCF:11:1,2019-10-11T20:00:00Z,26.4679,-82.0631,2.08,6.41,11111222 
SCCF RECON,ioos:station:SCCF:11:1,2019-10-11T21:00:00Z,26.4679,-82.0631,1.969,6.77,11111222 
SCCF RECON,ioos:station:SCCF:11:1,2019-10-11T22:00:00Z,26.4679,-82.0631,1.89,6.97,11111222 
SCCF RECON,ioos:station:SCCF:11:1,2019-10-11T23:00:00Z,26.4679,-82.0631,1.875,7.05,11111222 
SCCF RECON,ioos:station:SCCF:11:1,2019-10-12T04:00:00Z,26.4679,-82.0631,2.37,6.05,11111222 
SCCF RECON,ioos:station:SCCF:11:1,2019-10-12T05:00:00Z,26.4679,-82.0631,2.38,5.7,11111222 
SCCF RECON,ioos:station:SCCF:11:1,2019-10-12T06:00:00Z,26.4679,-82.0631,2.32,5.62,11111222 
SCCF RECON,ioos:station:SCCF:11:1,2019-10-12T07:00:00Z,26.4679,-82.0631,2.175,5.41,11111222 
SCCF RECON,ioos:station:SCCF:11:1,2019-10-12T08:00:00Z,26.4679,-82.0631,2.056,5.12,11111222 
SCCF RECON,ioos:station:SCCF:11:1,2019-10-12T09:00:00Z,26.4679,-82.0631,1.96,4.95,11111222 
SCCF RECON,ioos:station:SCCF:11:1,2019-10-12T10:00:00Z,26.4679,-82.0631,1.89,4.77,11111222 
SCCF RECON,ioos:station:SCCF:11:1,2019-10-12T11:00:00Z,26.4679,-82.0631,1.84,4.58,11111222 
SCCF RECON,ioos:station:SCCF:11:1,2019-10-12T12:00:00Z,26.4679,-82.0631,1.875,5.16,11111222 
SCCF RECON,ioos:station:SCCF:11:1,2019-10-12T13:00:00Z,26.4679,-82.0631,2.04,5.11,11111222 
SCCF RECON,ioos:station:SCCF:11:1,2019-10-12T14:00:00Z,26.4679,-82.0631,2.224,5.08,11111222 
SCCF RECON,ioos:station:SCCF:11:1,2019-10-12T15:00:00Z,26.4679,-82.0631,2.332,5.64,11111222 
SCCF RECON,ioos:station:SCCF:11:1,2019-10-12T16:00:00Z,26.4679,-82.0631,2.407,5.85,11111222 
SCCF RECON,ioos:station:SCCF:11:1,2019-10-12T17:00:00Z,26.4679,-82.0631,2.432,5.78,11111222 
SCCF RECON,ioos:station:SCCF:11:1,2019-10-12T18:00:00Z,26.4679,-82.0631,2.39,5.59,11111222 
SCCF RECON,ioos:station:SCCF:11:1,2019-10-12T19:00:00Z,26.4679,-82.0631,2.274,5.93,11111222 
SCCF RECON,ioos:station:SCCF:11:1,2019-10-12T20:00:00Z,26.4679,-82.0631,2.149,5.97,11111222 
SCCF RECON,ioos:station:SCCF:11:1,2019-10-12T21:00:00Z,26.4679,-82.0631,2.044,6.22,11111222 
SCCF RECON,ioos:station:SCCF:11:1,2019-10-12T22:00:00Z,26.4679,-82.0631,1.969,6.13,11111222 
SCCF RECON,ioos:station:SCCF:11:1,2019-10-12T23:00:00Z,26.4679,-82.0631,1.89,5.96,11111222 
SCCF RECON,ioos:station:SCCF:11:1,2019-10-13T04:00:00Z,26.4679,-82.0631,2.35,5.6,11111222 
SCCF RECON,ioos:station:SCCF:11:1,2019-10-13T05:00:00Z,26.4679,-82.0631,2.4,5.51,11111222 
SCCF RECON,ioos:station:SCCF:11:1,2019-10-13T06:00:00Z,26.4679,-82.0631,2.37,5.45,11111222 
SCCF RECON,ioos:station:SCCF:11:1,2019-10-13T07:00:00Z,26.4679,-82.0631,2.25,5.24,11111222 
SCCF RECON,ioos:station:SCCF:11:1,2019-10-13T08:00:00Z,26.4679,-82.0631,2.108,5.01,11111222 
SCCF RECON,ioos:station:SCCF:11:1,2019-10-13T09:00:00Z,26.4679,-82.0631,1.97,5.0,11111222 
SCCF RECON,ioos:station:SCCF:11:1,2019-10-13T10:00:00Z,26.4679,-82.0631,1.869,4.78,11111222 
SCCF RECON,ioos:station:SCCF:11:1,2019-10-13T11:00:00Z,26.4679,-82.0631,1.791,4.32,11111222 
SCCF RECON,ioos:station:SCCF:11:1,2019-10-13T12:00:00Z,26.4679,-82.0631,1.8,4.95,11111222 
SCCF RECON,ioos:station:SCCF:11:1,2019-10-13T13:00:00Z,26.4679,-82.0631,1.94,5.0,11111222 
SCCF RECON,ioos:station:SCCF:11:1,2019-10-13T14:00:00Z,26.4679,-82.0631,2.132,5.02,11111222 
SCCF RECON,ioos:station:SCCF:11:1,2019-10-13T15:00:00Z,26.4679,-82.0631,2.282,5.42,11111222 
SCCF RECON,ioos:station:SCCF:11:1,2019-10-13T16:00:00Z,26.4679,-82.0631,2.399,4.99,11111222 
SCCF RECON,ioos:station:SCCF:11:1,2019-10-13T17:00:00Z,26.4679,-82.0631,2.459,5.34,11111222 
SCCF RECON,ioos:station:SCCF:11:1,2019-10-13T18:00:00Z,26.4679,-82.0631,2.457,5.52,11111222 
SCCF RECON,ioos:station:SCCF:11:1,2019-10-13T19:00:00Z,26.4679,-82.0631,2.404,5.61,11111222 
SCCF RECON,ioos:station:SCCF:11:1,2019-10-13T20:00:00Z,26.4679,-82.0631,2.304,5.88,11111222 
SCCF RECON,ioos:station:SCCF:11:1,2019-10-13T21:00:00Z,26.4679,-82.0631,2.211,6.1,11111222 
SCCF RECON,ioos:station:SCCF:11:1,2019-10-13T22:00:00Z,26.4679,-82.0631,2.11,6.08,11111222 
SCCF RECON,ioos:station:SCCF:11:1,2019-10-13T23:00:00Z,26.4679,-82.0631,2.04,5.92,11111222 